Regional Weather Roundup
Issued by NWS

Home | Current Version | Previous Version | Text Only | Print | Product List | Glossary Off
Versions: 1 2 3 4 5 6 7 8 9 10 11 12 13 14 15 16 17 18 19 20 21 22 23 24 25 26 27 28 29 30 31 32 33 34 35 36 37 38 39 40 41 42 43 44 45 46 47 48 49 50

000
ASUS43 KFSD 282210
RWRSD

WEATHER ROUNDUP FOR SOUTH DAKOTA
NATIONAL WEATHER SERVICE SIOUX FALLS SD
500 PM CDT TUE MAR 28 2017

NOTE: "FAIR" INDICATES FEW OR NO CLOUDS BELOW 12,000 FEET WITH NO
SIGNIFICANT WEATHER AND/OR OBSTRUCTIONS TO VISIBILITY.


SDZ001>005-009-010-012>017-282300-
NORTHWEST AND NORTH CENTRAL SOUTH DAKOTA

CITY           SKY/WX    TMP DP  RH WIND       PRES   REMARKS
BUFFALO          N/A     50  42  74 NW8       29.98S
FAITH            N/A     49  43  80 MISG      30.06R
MOBRIDGE       CLOUDY    59  36  42 SE12      30.05S
$$

SDZ012>016-024>037-041>051-057-063-072>074-282300-
SOUTHWEST AND SOUTH CENTRAL SOUTH DAKOTA

CITY           SKY/WX    TMP DP  RH WIND       PRES   REMARKS
RAPID CTY ARPT CLOUDY    45  41  86 CALM      30.05R
PIERRE         CLOUDY    56  39  53 SE9       30.07S
CUSTER         LGT RAIN  38  35  89 E7        30.03R FOG
ELLSWORTH AFB  CLOUDY    44  44 100 CALM      30.04
PHILIP         LGT RAIN  48  46  93 E10       30.07R
PINE RIDGE     LGT RAIN  46  42  86 E10       30.04R
SPEARFISH      FAIR      48  41  76 E10       30.05S
WINNER         LGT RAIN  50  45  83 SW3       30.08R
$$

SDZ004>011-016>023-039-040-282300-
NORTHEAST SOUTH DAKOTA

CITY           SKY/WX    TMP DP  RH WIND       PRES   REMARKS
ABERDEEN       CLOUDY    59  34  39 E9        30.10R
WATERTOWN      SUNNY     57  37  47 E10       30.11R
BROOKINGS      MOSUNNY   58  36  43 E12G17    30.09
SISSETON         N/A     59  36  42 E3        30.11F
$$

SDZ017-020-022-023-036>040-048>070-282300-
SOUTHEAST SOUTH DAKOTA

CITY           SKY/WX    TMP DP  RH WIND       PRES   REMARKS
SIOUX FALLS    CLOUDY    60  38  43 E13       30.08S
HURON          SUNNY     60  34  37 E14       30.08S
CHAMBERLAIN    CLOUDY    60  37  42 E9        30.07R
MITCHELL       CLOUDY    61  36  39 E13       30.08S
YANKTON        CLOUDY    57  37  47 E15       30.06S
$$

ABBREVIATIONS USED IN REMARKS
   TC - TEMPERATURE IN CELSIUS
  WCI - WIND CHILL INDEX
   HX - HEAT INDEX
  VSB - VISIBILITY





USA.gov is the U.S. government's official web portal to all federal, state and local government web resources and services.